Tracking 19831 objects as of 23-Aug-2019
HD Live streaming from Space Station
objects crossing your sky now

COSMOS 2251 DEB

Track COSMOS 2251 DEB now!
10-day predictions


NORAD ID: 35982
Int'l Code: 1993-036AVY
Perigee: 670.5 km
Apogee: 783.5 km
Inclination: 74.1 °
Period: 99.2 minutes
Semi major axis: 7097 km
RCS: 0.0109 m2 (small)
Launch date: June 16, 1993
Source: Commonwealth of Independent States (former USSR) (CIS)
Launch site: PLESETSK MISSILE AND SPACE COMPLEX (PKMTR)

Note: This is SATELLITE DEBRIS
aabbcc
Your satellite tracking list
Your tracking list is empty




NASA's NSSDC Master Catalog

Two Line Element Set (TLE):
1 35982U 93036AVY 19235.39008258  .00000159  00000-0  45275-4 0  9995
2 35982  74.0614  19.9634 0079633 321.1490  38.3962 14.51773300527951
Source of the keplerian elements: AFSPC